Weather History for KEYW - April, 2014

Change the Weather History Date:

Tuesday, April 8, 2014

  Actual Average Record
Temperature  
Mean Temperature 76 °F 76 °F  
Max Temperature 85 °F 80 °F 88 °F (1953)
Min Temperature 67 °F 71 °F 58 °F (1950)
Degree Days  
Heating Degree Days 0 0  
Month to date heating degree days 0 0  
Since 1 July heating degree days 22 73  
Cooling Degree Days 11 11  
Month to date cooling degree days 102 81  
Year to date cooling degree days 805 691  
Growing Degree Days 25 (Base 50)    
Moisture  
Dew Point 70 °F    
Average Humidity 80    
Maximum Humidity 91    
Minimum Humidity 68    
Precipitation  
Precipitation 0.47 in 0.06 in 2.68 in (2005)
Month to date precipitation 0.47 0.55  
Year to date precipitation 11.85 6.13  
Snow  
Snow 0.00 in - - ()
Month to date snowfall 0.0  
Since 1 July snowfall 0.0  
Snow Depth 0.00 in    
Sea Level Pressure  
Sea Level Pressure 29.89 in    
Wind  
Wind Speed 13 mph (West)    
Max Wind Speed 30 mph    
Max Gust Speed 42 mph    
Visibility 8 miles    
Events Rain , Thunderstorm    
T = Trace of Precipitation, MM = Missing Value Source: NWS Daily Summary

Daily Weather History Graph

Daily Weather History Graph

Search for Another Location

Airport or City:

Trip Planner

Search our weather history database for the weather conditions in past years. The results will help you decide how hot, cold, wet, or windy it might be!

Date:

Astronomy

Apr. 08, 2014 Rise Set
Actual Time 7:11 AM EDT 7:46 PM EDT
Civil Twilight 6:48 AM EDT 8:09 PM EDT
Nautical Twilight 6:21 AM EDT 8:36 PM EDT
Astronomical Twilight 5:54 AM EDT 9:03 PM EDT
Moon 2:13 PM EDT (4/8) 2:47 AM EDT (4/8)
Length of Visible Light 13h 20m
Length of Day
12h 34m
Waxing Gibbous, 62% of the Moon is Illuminated
Apr 8
Waxing Gibbous
Apr 15
Full
Apr 22
Last Quarter
Apr 29
New
May 6
First Quarter

Hourly Weather History & Observations

Time (EDT) Temp. Heat Index Dew Point Humidity Pressure Visibility Wind Dir Wind Speed Gust Speed Precip Events Conditions
12:53 AM 79.0 °F - 75.9 °F 90% 29.91 in 10.0 mi South 9.2 mph - N/A   Clear
1:53 AM 79.0 °F - 75.0 °F 88% 29.89 in 10.0 mi South 10.4 mph - N/A   Clear
2:53 AM 79.0 °F - 75.0 °F 88% 29.88 in 10.0 mi South 10.4 mph - N/A   Clear
3:53 AM 79.0 °F - 75.0 °F 88% 29.86 in 10.0 mi South 11.5 mph - N/A   Scattered Clouds
4:53 AM 79.0 °F - 75.0 °F 88% 29.86 in 10.0 mi South 15.0 mph - N/A   Scattered Clouds
5:42 AM 77.0 °F - 72.0 °F 84% 29.85 in 10.0 mi South 15.0 mph - 0.01 in   Overcast
5:53 AM 78.1 °F - 73.0 °F 84% 29.85 in 10.0 mi South 15.0 mph - 0.01 in   Overcast
6:53 AM 79.0 °F - 75.0 °F 88% 29.86 in 10.0 mi South 15.0 mph - N/A   Partly Cloudy
7:53 AM 79.0 °F - 75.0 °F 88% 29.87 in 10.0 mi South 16.1 mph - N/A   Clear
8:53 AM 80.1 °F 85.1 °F 75.0 °F 85% 29.88 in 10.0 mi South 17.3 mph - N/A   Clear
9:53 AM 81.0 °F 87.3 °F 75.9 °F 85% 29.89 in 10.0 mi South 13.8 mph - N/A   Clear
10:53 AM 81.0 °F 87.3 °F 75.9 °F 85% 29.90 in 10.0 mi SSW 13.8 mph - N/A   Scattered Clouds
11:53 AM 82.0 °F 89.4 °F 75.9 °F 82% 29.89 in 10.0 mi SSW 17.3 mph - N/A   Clear
12:53 PM 82.9 °F 90.8 °F 75.9 °F 79% 29.87 in 10.0 mi SSW 15.0 mph - N/A   Clear
1:53 PM 84.0 °F 93.7 °F 77.0 °F 79% 29.86 in 10.0 mi SSW 11.5 mph - N/A   Clear
2:53 PM 84.0 °F 93.7 °F 77.0 °F 79% 29.85 in 10.0 mi WSW 11.5 mph - N/A   Clear
3:53 PM 84.0 °F 92.6 °F 75.9 °F 76% 29.83 in 10.0 mi SW 11.5 mph - N/A   Partly Cloudy
4:42 PM 75.0 °F - 70.0 °F 84% 29.85 in 10.0 mi NW 23.0 mph 39.1 mph N/A   Mostly Cloudy
4:47 PM 75.2 °F - 69.8 °F 83% 29.84 in 10.0 mi NW 28.8 mph 39.1 mph N/A   Mostly Cloudy
4:53 PM 73.9 °F - 70.0 °F 87% 29.85 in 6.0 mi NW 25.3 mph 38.0 mph 0.00 in Rain Rain
5:05 PM 72.0 °F - 69.1 °F 91% 29.86 in 2.0 mi NW 28.8 mph 38.0 mph 0.04 in Rain Heavy Rain
5:10 PM 72.0 °F - 68.0 °F 87% 29.86 in 4.0 mi NW 29.9 mph 39.1 mph 0.05 in Rain Light Rain
5:53 PM 71.1 °F - 66.9 °F 87% 29.88 in 10.0 mi NNW 23.0 mph 29.9 mph 0.05 in   Mostly Cloudy
6:28 PM 71.1 °F - 66.9 °F 87% 29.88 in 7.0 mi NNW 20.7 mph 28.8 mph 0.01 in Rain Light Rain
6:38 PM 70.0 °F - 66.9 °F 90% 29.90 in 6.0 mi NNW 16.1 mph 25.3 mph 0.01 in Rain Light Rain
6:53 PM 68.0 °F - 66.0 °F 93% 29.91 in 2.0 mi NW 15.0 mph - 0.17 in Rain Heavy Rain
7:10 PM 66.9 °F - 64.9 °F 93% 29.92 in 1.8 mi NW 20.7 mph 29.9 mph 0.13 in Rain Heavy Rain
7:12 PM 66.9 °F - 64.9 °F 93% 29.91 in 2.0 mi NW 17.3 mph 29.9 mph 0.14 in Rain , Thunderstorm Heavy Rain
7:21 PM 66.9 °F - 64.9 °F 93% 29.90 in 1.8 mi NNW 15.0 mph - 0.23 in Rain , Thunderstorm Heavy Rain
7:25 PM 66.9 °F - 64.0 °F 90% 29.90 in 3.0 mi NNW 12.7 mph - 0.24 in Rain , Thunderstorm Light Rain
7:32 PM 66.9 °F - 64.9 °F 93% 29.90 in 10.0 mi NNW 12.7 mph - 0.24 in Rain Light Rain
7:53 PM 69.1 °F - 64.9 °F 87% 29.92 in 10.0 mi NW 12.7 mph 19.6 mph 0.24 in   Overcast
8:53 PM 70.0 °F - 61.0 °F 73% 29.93 in 10.0 mi North 5.8 mph - 0.00 in Rain Light Rain
9:53 PM 71.1 °F - 61.0 °F 70% 29.95 in 10.0 mi WNW 6.9 mph - 0.00 in   Mostly Cloudy
10:53 PM 70.0 °F - 61.0 °F 73% 29.97 in 10.0 mi West 4.6 mph - 0.00 in   Overcast
11:53 PM 71.1 °F - 60.1 °F 68% 29.98 in 10.0 mi West 8.1 mph - N/A   Clear